Location: *
(49.9853°N, 3.5569°E)
Time: 14:01:01
(UTC+00:00)

Cosmos 2263 Rocket - Pass Details

Date: 22 September 2019
Orbit: 824 x 848 km, 71.0° (Epoch: 21 October)

Event Time Altitude Azimuth Distance (km) Brightness Sun altitude
Exits shadow 22:00:11 26° 19° (NNE) 1,614 3.9 -35.6°
Drops below altitude 10° 22:02:36 10° 26° (NNE) 2,477 4.9 -35.8°
Sets 22:05:05 0° 29° (NNE) 3,413 5.7 -36.0°
